{"data":{"norad_id":68515,"intl_designator":"2026-068H","name":"STARLINK-36293","alt_names":[],"object_type":"PAYLOAD","status":"ACTIVE","operator":null,"country":"US","launch_date":"2026-03-30","launch_site_code":"AFETR","launch_vehicle":null,"mission":null,"orbit_class":"UNKNOWN","rcs_meters":null,"size_class":null,"mass_kg":null,"dimensions":null,"purposes":["comms"],"wikipedia_slug":null,"has_3d_model":false,"image_url":null,"decayed_at":null,"tle_current":{"epoch":"2026-09-19T20:09:52.352064Z","epoch_age_seconds":104680,"freshness":"FRESH","line1":"1 68515U 26068H   26262.84018926  .00009424  00000+0  28961-3 0  9990","line2":"2 68515  53.1611 302.9604 0000726  79.3486 280.7598 15.34409713 26734","mean_motion":15.34409713,"eccentricity":7.26e-5,"inclination_deg":53.1611,"raan_deg":302.9604,"arg_perigee_deg":79.3486,"mean_anomaly_deg":280.7598,"bstar":0.00028961,"rev_number":2673,"period_min":93.847164013618,"perigee_km":462.17772837092,"apogee_km":463.17101418203,"semimajor_km":6840.8113712765,"source":"CELESTRAK","updated_at":"2026-09-20T09:00:43.902727Z"}}}